Wenatchee, WA

4:13 AM PDT on July 21, 2017 (GMT -0700)
Pangborn Memorial

Weather History for KEAT - October, 2011

Change the Weather History Date:

Monday, October 10, 2011

  Actual Average Record
Temperature  
Mean Temperature 48 °F 48 °F  
Max Temperature 53 °F 61 °F 80 °F (1988)
Min Temperature 43 °F 35 °F 30 °F (2009)
Degree Days  
Heating Degree Days 17 17  
Month to date heating degree days 136 152  
Since 1 July heating degree days 416 508  
Cooling Degree Days 0 0  
Month to date cooling degree days 0 0  
Year to date cooling degree days 161 249  
Growing Degree Days 4 (Base 50)    
Moisture  
Dew Point 49 °F    
Average Humidity 86    
Maximum Humidity 96    
Minimum Humidity 72    
Precipitation  
Precipitation 0.06 in 0.03 in 0.41 in (2016)
Month to date precipitation 0.47 0.27  
Year to date precipitation 13.14 11.32  
Snow  
Snow 0.00 in 0.00 in - ()
Month to date snowfall 0.0 0.0  
Since 1 July snowfall 0.0 0.0  
Since 1 September snowfall 0.0 0.0  
Snow Depth 0.00 in    
Sea Level Pressure  
Sea Level Pressure 29.61 in    
Wind  
Wind Speed 7 mph (ESE)    
Max Wind Speed 17 mph    
Max Gust Speed 17 mph    
Visibility 9 miles    
Events Rain    
T = Trace of Precipitation, MM = Missing Value Source: NWS Daily Summary

Daily Weather History Graph

Daily Weather History Graph

Search for Another Location

Airport or City:

Trip Planner

Search our weather history database for the weather conditions in past years. The results will help you decide how hot, cold, wet, or windy it might be!

Date:

Astronomy

Oct. 10, 2011 Rise Set
Actual Time 7:12 AM PDT 6:22 PM PDT
Civil Twilight 6:41 AM PDT 6:53 PM PDT
Nautical Twilight 6:05 AM PDT 7:28 PM PDT
Astronomical Twilight 5:30 AM PDT 8:04 PM PDT
Moon 5:28 PM PDT (10/10) 5:56 AM PDT (10/10)
Length of Visible Light 12h 12m
Length of Day
11h 10m
Waxing Gibbous, 98% of the Moon is Illuminated
Oct 10
Waxing Gibbous
Oct 11
Full
Oct 19
Last Quarter
Oct 26
New
Nov 2
First Quarter

Hourly Weather History & Observations

Time (PDT) Temp. Dew Point Humidity Pressure Visibility Wind Dir Wind Speed Gust Speed Precip Events Conditions
12:55 AM 51.1 °F 48.0 °F 89% 29.80 in 10.0 mi North 4.6 mph - N/A   Mostly Cloudy
3:55 AM 51.1 °F 50.0 °F 96% 29.74 in 10.0 mi Calm Calm - N/A   Overcast
6:55 AM 52.0 °F 48.9 °F 89% 29.69 in 10.0 mi Calm Calm - N/A   Overcast
7:38 AM 51.8 °F 48.2 °F 88% 29.67 in 10.0 mi East 4.6 mph - N/A   Scattered Clouds
7:55 AM 51.1 °F 48.0 °F 89% 29.67 in 8.0 mi ESE 8.1 mph - N/A   Scattered Clouds
8:55 AM 52.0 °F 48.0 °F 86% 29.65 in 9.0 mi East 9.2 mph - N/A   Mostly Cloudy
9:42 AM 51.8 °F 48.2 °F 88% 29.64 in 9.0 mi SE 11.5 mph - 0.00 in   Overcast
9:55 AM 52.0 °F 48.0 °F 86% 29.63 in 9.0 mi SE 16.1 mph - 0.00 in   Overcast
10:09 AM 51.8 °F 48.2 °F 88% 29.63 in 9.0 mi SE 10.4 mph - N/A   Overcast
10:25 AM 51.8 °F 48.2 °F 88% 29.63 in 10.0 mi ESE 4.6 mph - N/A   Overcast
10:38 AM 51.8 °F 48.2 °F 88% 29.63 in 9.0 mi SE 12.7 mph - N/A   Overcast
10:55 AM 52.0 °F 48.0 °F 86% 29.63 in 9.0 mi SE 8.1 mph - N/A   Overcast
11:17 AM 51.8 °F 48.2 °F 88% 29.62 in 8.0 mi ESE 8.1 mph - 0.00 in Rain Light Rain
11:55 AM 53.1 °F 48.9 °F 86% 29.60 in 10.0 mi ESE 10.4 mph - 0.00 in   Overcast
12:55 PM 55.9 °F 48.9 °F 77% 29.57 in 10.0 mi SE 17.3 mph - N/A   Overcast
1:55 PM 55.0 °F 48.9 °F 80% 29.58 in 10.0 mi SE 13.8 mph - N/A   Overcast
2:25 PM 57.2 °F 48.2 °F 72% 29.56 in 10.0 mi SE 11.5 mph 17.3 mph N/A   Mostly Cloudy
2:55 PM 57.9 °F 48.9 °F 72% 29.55 in 10.0 mi ESE 12.7 mph - N/A   Clear
3:55 PM 57.9 °F 48.9 °F 72% 29.54 in 10.0 mi ESE 13.8 mph - N/A   Mostly Cloudy
5:55 PM 55.9 °F 51.1 °F 84% 29.54 in 6.0 mi ESE 9.2 mph - 0.01 in Rain Light Rain
6:55 PM 55.0 °F 52.0 °F 89% 29.55 in 10.0 mi East 6.9 mph - 0.03 in   Overcast
7:55 PM 54.0 °F 52.0 °F 93% 29.56 in 10.0 mi East 3.5 mph - N/A   Mostly Cloudy
8:55 PM 54.0 °F 51.1 °F 90% 29.56 in 10.0 mi East 3.5 mph - N/A   Partly Cloudy
9:55 PM 54.0 °F 51.1 °F 90% 29.57 in 10.0 mi NNE 4.6 mph - N/A   Partly Cloudy
10:55 PM 54.0 °F 52.0 °F 93% 29.58 in 9.0 mi SE 4.6 mph - N/A   Mostly Cloudy
11:55 PM 53.1 °F 51.1 °F 93% 29.57 in 8.0 mi ESE 4.6 mph - N/A   Partly Cloudy